Location: Del Oro Observatory
(38.3044°N, 104.8119°W)
Time: 18:13:36
(UTC-06:00)

Iridium 35 - Visible Passes

Search period start: 28 May 2015 00:00
Search period end: 07 June 2015 00:00
Orbit: 776 x 779 km, 86.4° (Epoch: 28 May)

Date Brightness Start Highest point End Pass type
(mag) Time Alt. Az. Time Alt. Az. Time Alt. Az.
28 May 5.2 02:42:34 54° SE 02:43:30 65° E 02:48:40 10° N visible
28 May 6.9 04:23:03 12° W 04:24:50 13° WNW 04:27:07 10° NW visible
29 May 6.2 02:09:14 32° ESE 02:10:05 34° E 02:14:47 10° NNE visible
29 May 6.2 03:49:43 23° W 03:50:55 25° WNW 03:55:05 10° NNW visible
30 May 7.0 01:35:54 18° E 01:36:45 19° E 01:40:22 10° NE visible
30 May 5.4 03:16:23 42° WSW 03:17:09 45° W 03:22:10 10° N visible
31 May 4.8 02:43:02 73° SSW 02:43:34 86° W 02:48:49 10° N visible
01 Jun 5.5 02:09:41 49° ESE 02:10:06 50° E 02:15:09 10° NNE visible
01 Jun 6.7 03:50:09 16° W 03:51:14 17° WNW 03:54:28 10° NW visible
02 Jun 6.5 01:36:19 26° E 01:36:43 27° E 01:41:04 10° NNE visible
02 Jun 5.9 03:16:47 30° W 03:17:22 31° W 03:21:57 10° NNW visible
03 Jun 7.2 01:02:57 14° E 01:03:25 14° E 01:06:16 10° NE visible
03 Jun 5.1 02:43:25 58° W 02:43:41 59° W 02:48:50 10° N visible
04 Jun 5.0 02:10:02 74° ESE 02:10:08 74° E 02:15:22 10° N visible
04 Jun 7.1 03:50:30 11° W 03:51:37 11° WNW 03:53:06 10° NW visible
05 Jun 5.9 01:36:39 39° E 01:36:42 39° E 01:41:33 10° NNE visible
05 Jun 6.5 03:17:07 21° W 03:17:38 22° WNW 03:21:33 10° NNW visible
06 Jun 6.8 01:03:15 21° E 01:03:22 21° E 01:07:16 10° NNE visible
06 Jun 5.7 02:43:43 40° W 02:43:51 40° W 02:48:44 10° NNW visible
